Regional Weather Roundup
Issued by NWS

Home | Current Version | Previous Version | Text Only | Print | Product List | Glossary Off
Versions: 1 2 3 4 5 6 7 8 9 10 11 12 13 14 15 16 17 18 19 20 21 22 23 24 25 26 27 28 29 30 31 32 33 34 35 36 37 38 39 40 41 42 43 44 45 46 47 48 49 50

000
ASUS43 KBIS 202202
RWRND

NORTH DAKOTA REGIONAL WEATHER ROUNDUP
NATIONAL WEATHER SERVICE BISMARCK ND
400 PM CST FRI JAN 20 2017

NOTE: "FAIR" INDICATES FEW OR NO CLOUDS BELOW 12,000 FEET WITH NO
SIGNIFICANT WEATHER AND/OR OBSTRUCTIONS TO VISIBILITY.


NDZ001>003-009>011-017-202300-
NORTHWEST NORTH DAKOTA

CITY           SKY/WX    TMP DP  RH WIND       PRES   REMARKS
WILLISTON      FAIR      32  26  78 CALM      29.34R
MINOT          CLOUDY    27  25  92 S15       29.33F WCI  15
MINOT AFB      CLOUDY    25  22  89 S9        29.33F WCI  15
$$

NDZ018>021-031>035-040>046-202300-
SOUTHWEST NORTH DAKOTA

CITY           SKY/WX    TMP DP  RH WIND       PRES   REMARKS
BISMARCK       CLOUDY    31  30  96 CALM      29.34S FOG
DICKINSON      FAIR      32  27  81 NW15      29.28S
GARRISON         N/A     25  24  96 S8        29.33S WCI  16
HETTINGER ARPT PTSUNNY   33  28  81 N8        29.31R
$$

NDZ004>008-012>016-024-026-027-054-202300-
NORTHEAST NORTH DAKOTA

CITY           SKY/WX    TMP DP  RH WIND       PRES   REMARKS
GRAND FORKS    FOG       35  33  92 SE8       29.45S VSB 1
GRND FRKS AFB  FOG       34  34  99 E7        29.44F VSB 1
DEVILS LAKE    CLOUDY    33  33 100 SE7       29.40R FOG
$$

NDZ022-023-025-028>030-036>039-047>053-202300-
SOUTHEAST NORTH DAKOTA

CITY           SKY/WX    TMP DP  RH WIND       PRES   REMARKS
FARGO          CLOUDY    38  35  89 E12       29.44S
JAMESTOWN      CLOUDY    33  33 100 E13       29.36S FOG
$$




USA.gov is the U.S. government's official web portal to all federal, state and local government web resources and services.